owner,sensor,date,latitude,longitude,vertical_datum,sea_water_temperature,qcFlag 
SCCF RECON,ioos:station:SCCF:13:1,2017-11-01T04:00:00Z,26.5255,-82.0032,2.33,21.89,2 
SCCF RECON,ioos:station:SCCF:13:1,2017-11-01T05:00:00Z,26.5255,-82.0032,2.33,22.0,2 
SCCF RECON,ioos:station:SCCF:13:1,2017-11-01T06:00:00Z,26.5255,-82.0032,2.33,21.99,2 
SCCF RECON,ioos:station:SCCF:13:1,2017-11-01T07:00:00Z,26.5255,-82.0032,2.33,21.51,2 
SCCF RECON,ioos:station:SCCF:13:1,2017-11-01T08:00:00Z,26.5255,-82.0032,2.33,20.94,2 
SCCF RECON,ioos:station:SCCF:13:1,2017-11-01T09:00:00Z,26.5255,-82.0032,2.33,20.94,2 
SCCF RECON,ioos:station:SCCF:13:1,2017-11-01T10:00:00Z,26.5255,-82.0032,2.33,20.84,2 
SCCF RECON,ioos:station:SCCF:13:1,2017-11-01T11:00:00Z,26.5255,-82.0032,2.33,20.75,2 
SCCF RECON,ioos:station:SCCF:13:1,2017-11-01T12:00:00Z,26.5255,-82.0032,2.33,20.69,2 
SCCF RECON,ioos:station:SCCF:13:1,2017-11-01T13:00:00Z,26.5255,-82.0032,2.33,20.57,2 
SCCF RECON,ioos:station:SCCF:13:1,2017-11-01T14:00:00Z,26.5255,-82.0032,2.33,21.35,2 
SCCF RECON,ioos:station:SCCF:13:1,2017-11-01T15:00:00Z,26.5255,-82.0032,2.33,21.5,2 
SCCF RECON,ioos:station:SCCF:13:1,2017-11-01T16:00:00Z,26.5255,-82.0032,2.33,21.96,2 
SCCF RECON,ioos:station:SCCF:13:1,2017-11-01T17:00:00Z,26.5255,-82.0032,2.33,22.29,2 
SCCF RECON,ioos:station:SCCF:13:1,2017-11-01T18:00:00Z,26.5255,-82.0032,2.33,22.18,2 
SCCF RECON,ioos:station:SCCF:13:1,2017-11-01T19:00:00Z,26.5255,-82.0032,2.33,22.21,2 
SCCF RECON,ioos:station:SCCF:13:1,2017-11-01T20:00:00Z,26.5255,-82.0032,2.33,22.34,2 
SCCF RECON,ioos:station:SCCF:13:1,2017-11-01T21:00:00Z,26.5255,-82.0032,2.33,22.43,2 
SCCF RECON,ioos:station:SCCF:13:1,2017-11-01T22:00:00Z,26.5255,-82.0032,2.33,22.01,2 
SCCF RECON,ioos:station:SCCF:13:1,2017-11-02T04:00:00Z,26.5255,-82.0032,2.33,22.33,2 
SCCF RECON,ioos:station:SCCF:13:1,2017-11-02T05:00:00Z,26.5255,-82.0032,2.33,22.64,2 
SCCF RECON,ioos:station:SCCF:13:1,2017-11-02T06:00:00Z,26.5255,-82.0032,2.33,22.74,2 
SCCF RECON,ioos:station:SCCF:13:1,2017-11-02T07:00:00Z,26.5255,-82.0032,2.33,22.62,2 
SCCF RECON,ioos:station:SCCF:13:1,2017-11-02T08:00:00Z,26.5255,-82.0032,2.33,21.89,2 
SCCF RECON,ioos:station:SCCF:13:1,2017-11-02T09:00:00Z,26.5255,-82.0032,2.33,21.52,2 
SCCF RECON,ioos:station:SCCF:13:1,2017-11-02T10:00:00Z,26.5255,-82.0032,2.33,21.52,2 
SCCF RECON,ioos:station:SCCF:13:1,2017-11-02T11:00:00Z,26.5255,-82.0032,2.33,21.45,2 
SCCF RECON,ioos:station:SCCF:13:1,2017-11-02T12:00:00Z,26.5255,-82.0032,2.33,21.36,2 
SCCF RECON,ioos:station:SCCF:13:1,2017-11-02T13:00:00Z,26.5255,-82.0032,2.33,21.32,2 
SCCF RECON,ioos:station:SCCF:13:1,2017-11-02T14:00:00Z,26.5255,-82.0032,2.33,21.44,2 
SCCF RECON,ioos:station:SCCF:13:1,2017-11-02T15:00:00Z,26.5255,-82.0032,2.33,21.84,2 
SCCF RECON,ioos:station:SCCF:13:1,2017-11-02T16:00:00Z,26.5255,-82.0032,2.33,22.24,2 
SCCF RECON,ioos:station:SCCF:13:1,2017-11-02T17:00:00Z,26.5255,-82.0032,2.33,22.79,2 
SCCF RECON,ioos:station:SCCF:13:1,2017-11-02T18:00:00Z,26.5255,-82.0032,2.33,22.88,2 
SCCF RECON,ioos:station:SCCF:13:1,2017-11-02T19:00:00Z,26.5255,-82.0032,2.33,23.34,2 
SCCF RECON,ioos:station:SCCF:13:1,2017-11-02T20:00:00Z,26.5255,-82.0032,2.33,23.09,2 
SCCF RECON,ioos:station:SCCF:13:1,2017-11-02T21:00:00Z,26.5255,-82.0032,2.33,23.06,2 
SCCF RECON,ioos:station:SCCF:13:1,2017-11-02T22:00:00Z,26.5255,-82.0032,2.33,22.8,2 
SCCF RECON,ioos:station:SCCF:13:1,2017-11-03T04:00:00Z,26.5255,-82.0032,2.33,22.96,2 
SCCF RECON,ioos:station:SCCF:13:1,2017-11-03T05:00:00Z,26.5255,-82.0032,2.33,22.9,2 
SCCF RECON,ioos:station:SCCF:13:1,2017-11-03T06:00:00Z,26.5255,-82.0032,2.33,22.88,2 
SCCF RECON,ioos:station:SCCF:13:1,2017-11-03T07:00:00Z,26.5255,-82.0032,2.33,22.89,2 
SCCF RECON,ioos:station:SCCF:13:1,2017-11-03T08:00:00Z,26.5255,-82.0032,2.33,22.38,2 
SCCF RECON,ioos:station:SCCF:13:1,2017-11-03T09:00:00Z,26.5255,-82.0032,2.33,22.23,2 
SCCF RECON,ioos:station:SCCF:13:1,2017-11-03T10:00:00Z,26.5255,-82.0032,2.33,22.13,2 
SCCF RECON,ioos:station:SCCF:13:1,2017-11-03T11:00:00Z,26.5255,-82.0032,2.33,22.06,2 
SCCF RECON,ioos:station:SCCF:13:1,2017-11-03T12:00:00Z,26.5255,-82.0032,2.33,22.02,2 
SCCF RECON,ioos:station:SCCF:13:1,2017-11-03T13:00:00Z,26.5255,-82.0032,2.33,22.1,2 
SCCF RECON,ioos:station:SCCF:13:1,2017-11-03T14:00:00Z,26.5255,-82.0032,2.33,22.2,2 
SCCF RECON,ioos:station:SCCF:13:1,2017-11-03T15:00:00Z,26.5255,-82.0032,2.33,22.13,2 
SCCF RECON,ioos:station:SCCF:13:1,2017-11-03T16:00:00Z,26.5255,-82.0032,2.33,22.4,2 
SCCF RECON,ioos:station:SCCF:13:1,2017-11-03T17:00:00Z,26.5255,-82.0032,2.33,22.73,2 
SCCF RECON,ioos:station:SCCF:13:1,2017-11-03T18:00:00Z,26.5255,-82.0032,2.33,23.29,2 
SCCF RECON,ioos:station:SCCF:13:1,2017-11-03T19:00:00Z,26.5255,-82.0032,2.33,23.36,2 
SCCF RECON,ioos:station:SCCF:13:1,2017-11-03T20:00:00Z,26.5255,-82.0032,2.33,23.31,2 
SCCF RECON,ioos:station:SCCF:13:1,2017-11-03T21:00:00Z,26.5255,-82.0032,2.33,23.24,2 
SCCF RECON,ioos:station:SCCF:13:1,2017-11-03T22:00:00Z,26.5255,-82.0032,2.33,23.16,2 
SCCF RECON,ioos:station:SCCF:13:1,2017-11-04T04:00:00Z,26.5255,-82.0032,2.33,23.1,2 
SCCF RECON,ioos:station:SCCF:13:1,2017-11-04T05:00:00Z,26.5255,-82.0032,2.33,23.02,2 
SCCF RECON,ioos:station:SCCF:13:1,2017-11-04T06:00:00Z,26.5255,-82.0032,2.33,23.08,2 
SCCF RECON,ioos:station:SCCF:13:1,2017-11-04T07:00:00Z,26.5255,-82.0032,2.33,23.15,2 
SCCF RECON,ioos:station:SCCF:13:1,2017-11-04T08:00:00Z,26.5255,-82.0032,2.33,23.12,2 
SCCF RECON,ioos:station:SCCF:13:1,2017-11-04T09:00:00Z,26.5255,-82.0032,2.33,22.8,2 
SCCF RECON,ioos:station:SCCF:13:1,2017-11-04T10:00:00Z,26.5255,-82.0032,2.33,22.7,2 
SCCF RECON,ioos:station:SCCF:13:1,2017-11-04T11:00:00Z,26.5255,-82.0032,2.33,22.65,2 
SCCF RECON,ioos:station:SCCF:13:1,2017-11-04T12:00:00Z,26.5255,-82.0032,2.33,22.63,2 
SCCF RECON,ioos:station:SCCF:13:1,2017-11-04T13:00:00Z,26.5255,-82.0032,2.33,22.62,2 
SCCF RECON,ioos:station:SCCF:13:1,2017-11-04T14:00:00Z,26.5255,-82.0032,2.33,22.66,2 
SCCF RECON,ioos:station:SCCF:13:1,2017-11-04T15:00:00Z,26.5255,-82.0032,2.33,22.79,2 
SCCF RECON,ioos:station:SCCF:13:1,2017-11-04T16:00:00Z,26.5255,-82.0032,2.33,22.95,2 
SCCF RECON,ioos:station:SCCF:13:1,2017-11-04T17:00:00Z,26.5255,-82.0032,2.33,22.97,2 
SCCF RECON,ioos:station:SCCF:13:1,2017-11-04T18:00:00Z,26.5255,-82.0032,2.33,23.62,2 
SCCF RECON,ioos:station:SCCF:13:1,2017-11-04T19:00:00Z,26.5255,-82.0032,2.33,23.83,2 
SCCF RECON,ioos:station:SCCF:13:1,2017-11-04T20:00:00Z,26.5255,-82.0032,2.33,23.89,2 
SCCF RECON,ioos:station:SCCF:13:1,2017-11-04T21:00:00Z,26.5255,-82.0032,2.33,23.82,2 
SCCF RECON,ioos:station:SCCF:13:1,2017-11-04T22:00:00Z,26.5255,-82.0032,2.33,23.85,2 
SCCF RECON,ioos:station:SCCF:13:1,2017-11-05T04:00:00Z,26.5255,-82.0032,2.33,23.64,2 
SCCF RECON,ioos:station:SCCF:13:1,2017-11-05T05:00:00Z,26.5255,-82.0032,2.33,23.46,2 
SCCF RECON,ioos:station:SCCF:13:1,2017-11-05T06:00:00Z,26.5255,-82.0032,2.33,23.41,2 
SCCF RECON,ioos:station:SCCF:13:1,2017-11-05T07:00:00Z,26.5255,-82.0032,2.33,23.44,2 
SCCF RECON,ioos:station:SCCF:13:1,2017-11-05T08:00:00Z,26.5255,-82.0032,2.33,23.4,2 
SCCF RECON,ioos:station:SCCF:13:1,2017-11-05T09:00:00Z,26.5255,-82.0032,2.33,23.35,2 
SCCF RECON,ioos:station:SCCF:13:1,2017-11-05T10:00:00Z,26.5255,-82.0032,2.33,23.09,2 
SCCF RECON,ioos:station:SCCF:13:1,2017-11-05T11:00:00Z,26.5255,-82.0032,2.33,23.08,2 
SCCF RECON,ioos:station:SCCF:13:1,2017-11-05T12:00:00Z,26.5255,-82.0032,2.33,23.15,2 
SCCF RECON,ioos:station:SCCF:13:1,2017-11-05T13:00:00Z,26.5255,-82.0032,2.33,23.21,2 
SCCF RECON,ioos:station:SCCF:13:1,2017-11-05T14:00:00Z,26.5255,-82.0032,2.33,23.29,2 
SCCF RECON,ioos:station:SCCF:13:1,2017-11-05T15:00:00Z,26.5255,-82.0032,2.33,23.44,2 
SCCF RECON,ioos:station:SCCF:13:1,2017-11-05T16:00:00Z,26.5255,-82.0032,2.33,23.57,2 
SCCF RECON,ioos:station:SCCF:13:1,2017-11-05T17:00:00Z,26.5255,-82.0032,2.33,23.76,2 
SCCF RECON,ioos:station:SCCF:13:1,2017-11-05T18:00:00Z,26.5255,-82.0032,2.33,23.71,2 
SCCF RECON,ioos:station:SCCF:13:1,2017-11-05T19:00:00Z,26.5255,-82.0032,2.33,24.15,2 
SCCF RECON,ioos:station:SCCF:13:1,2017-11-05T20:00:00Z,26.5255,-82.0032,2.33,24.18,2 
SCCF RECON,ioos:station:SCCF:13:1,2017-11-05T21:00:00Z,26.5255,-82.0032,2.33,24.27,2 
SCCF RECON,ioos:station:SCCF:13:1,2017-11-05T22:00:00Z,26.5255,-82.0032,2.33,24.23,2 
SCCF RECON,ioos:station:SCCF:13:1,2017-11-06T05:00:00Z,26.5255,-82.0032,2.33,23.96,2 
SCCF RECON,ioos:station:SCCF:13:1,2017-11-06T06:00:00Z,26.5255,-82.0032,2.33,23.81,2 
SCCF RECON,ioos:station:SCCF:13:1,2017-11-06T07:00:00Z,26.5255,-82.0032,2.33,23.75,2 
SCCF RECON,ioos:station:SCCF:13:1,2017-11-06T08:00:00Z,26.5255,-82.0032,2.33,23.74,2 
SCCF RECON,ioos:station:SCCF:13:1,2017-11-06T09:00:00Z,26.5255,-82.0032,2.33,23.75,2 
SCCF RECON,ioos:station:SCCF:13:1,2017-11-06T10:00:00Z,26.5255,-82.0032,2.33,23.75,2 
SCCF RECON,ioos:station:SCCF:13:1,2017-11-06T11:00:00Z,26.5255,-82.0032,2.33,23.76,2 
SCCF RECON,ioos:station:SCCF:13:1,2017-11-06T12:00:00Z,26.5255,-82.0032,2.33,23.72,2 
SCCF RECON,ioos:station:SCCF:13:1,2017-11-06T13:00:00Z,26.5255,-82.0032,2.33,23.89,2 
SCCF RECON,ioos:station:SCCF:13:1,2017-11-06T14:00:00Z,26.5255,-82.0032,2.33,24.0,2 
SCCF RECON,ioos:station:SCCF:13:1,2017-11-06T15:00:00Z,26.5255,-82.0032,2.33,24.15,2 
SCCF RECON,ioos:station:SCCF:13:1,2017-11-06T16:00:00Z,26.5255,-82.0032,2.33,24.34,2 
SCCF RECON,ioos:station:SCCF:13:1,2017-11-06T17:00:00Z,26.5255,-82.0032,2.33,24.5,2 
SCCF RECON,ioos:station:SCCF:13:1,2017-11-06T18:00:00Z,26.5255,-82.0032,2.33,24.73,2 
SCCF RECON,ioos:station:SCCF:13:1,2017-11-06T19:00:00Z,26.5255,-82.0032,2.33,24.22,2 
SCCF RECON,ioos:station:SCCF:13:1,2017-11-06T20:00:00Z,26.5255,-82.0032,2.33,24.43,2 
SCCF RECON,ioos:station:SCCF:13:1,2017-11-06T21:00:00Z,26.5255,-82.0032,2.33,24.63,2 
SCCF RECON,ioos:station:SCCF:13:1,2017-11-06T22:00:00Z,26.5255,-82.0032,2.33,24.81,2 
SCCF RECON,ioos:station:SCCF:13:1,2017-11-07T05:00:00Z,26.5255,-82.0032,2.33,24.56,2 
SCCF RECON,ioos:station:SCCF:13:1,2017-11-07T06:00:00Z,26.5255,-82.0032,2.33,24.26,2 
SCCF RECON,ioos:station:SCCF:13:1,2017-11-07T07:00:00Z,26.5255,-82.0032,2.33,24.14,2 
SCCF RECON,ioos:station:SCCF:13:1,2017-11-07T08:00:00Z,26.5255,-82.0032,2.33,24.08,2 
SCCF RECON,ioos:station:SCCF:13:1,2017-11-07T09:00:00Z,26.5255,-82.0032,2.33,24.11,2 
SCCF RECON,ioos:station:SCCF:13:1,2017-11-07T10:00:00Z,26.5255,-82.0032,2.33,24.08,2 
SCCF RECON,ioos:station:SCCF:13:1,2017-11-07T11:00:00Z,26.5255,-82.0032,2.33,24.41,2 
SCCF RECON,ioos:station:SCCF:13:1,2017-11-07T12:00:00Z,26.5255,-82.0032,2.33,24.41,2 
SCCF RECON,ioos:station:SCCF:13:1,2017-11-07T13:00:00Z,26.5255,-82.0032,2.33,24.47,2 
SCCF RECON,ioos:station:SCCF:13:1,2017-11-07T14:00:00Z,26.5255,-82.0032,2.33,24.56,2 
SCCF RECON,ioos:station:SCCF:13:1,2017-11-07T17:00:00Z,26.5255,-82.0032,2.33,25.01,2 
SCCF RECON,ioos:station:SCCF:13:1,2017-11-07T19:00:00Z,26.5255,-82.0032,2.33,25.69,2 
SCCF RECON,ioos:station:SCCF:13:1,2017-11-07T20:00:00Z,26.5255,-82.0032,2.33,25.02,2 
SCCF RECON,ioos:station:SCCF:13:1,2017-11-07T22:00:00Z,26.5255,-82.0032,2.33,25.1,2 
SCCF RECON,ioos:station:SCCF:13:1,2017-11-07T23:00:00Z,26.5255,-82.0032,2.33,25.04,2 
SCCF RECON,ioos:station:SCCF:13:1,2017-11-08T06:00:00Z,26.5255,-82.0032,2.33,24.83,2 
SCCF RECON,ioos:station:SCCF:13:1,2017-11-08T07:00:00Z,26.5255,-82.0032,2.33,24.51,2 
SCCF RECON,ioos:station:SCCF:13:1,2017-11-08T08:00:00Z,26.5255,-82.0032,2.33,24.31,2 
SCCF RECON,ioos:station:SCCF:13:1,2017-11-08T09:00:00Z,26.5255,-82.0032,2.33,24.17,2 
SCCF RECON,ioos:station:SCCF:13:1,2017-11-08T10:00:00Z,26.5255,-82.0032,2.33,24.26,2 
SCCF RECON,ioos:station:SCCF:13:1,2017-11-08T11:00:00Z,26.5255,-82.0032,2.33,24.33,2 
SCCF RECON,ioos:station:SCCF:13:1,2017-11-08T12:00:00Z,26.5255,-82.0032,2.33,24.48,2 
SCCF RECON,ioos:station:SCCF:13:1,2017-11-08T13:00:00Z,26.5255,-82.0032,2.33,24.5,2 
SCCF RECON,ioos:station:SCCF:13:1,2017-11-08T14:00:00Z,26.5255,-82.0032,2.33,24.71,2 
SCCF RECON,ioos:station:SCCF:13:1,2017-11-08T15:00:00Z,26.5255,-82.0032,2.33,25.05,2 
SCCF RECON,ioos:station:SCCF:13:1,2017-11-08T16:00:00Z,26.5255,-82.0032,2.33,25.3,2 
SCCF RECON,ioos:station:SCCF:13:1,2017-11-08T17:00:00Z,26.5255,-82.0032,2.33,25.55,2 
SCCF RECON,ioos:station:SCCF:13:1,2017-11-08T18:00:00Z,26.5255,-82.0032,2.33,25.71,2 
SCCF RECON,ioos:station:SCCF:13:1,2017-11-08T19:00:00Z,26.5255,-82.0032,2.33,25.94,2 
SCCF RECON,ioos:station:SCCF:13:1,2017-11-08T20:00:00Z,26.5255,-82.0032,2.33,26.19,2 
SCCF RECON,ioos:station:SCCF:13:1,2017-11-08T21:00:00Z,26.5255,-82.0032,2.33,25.19,2 
SCCF RECON,ioos:station:SCCF:13:1,2017-11-08T22:00:00Z,26.5255,-82.0032,2.33,25.42,2 
SCCF RECON,ioos:station:SCCF:13:1,2017-11-09T05:00:00Z,26.5255,-82.0032,2.33,25.14,2 
SCCF RECON,ioos:station:SCCF:13:1,2017-11-09T06:00:00Z,26.5255,-82.0032,2.33,25.09,2 
SCCF RECON,ioos:station:SCCF:13:1,2017-11-09T07:00:00Z,26.5255,-82.0032,2.33,24.99,2 
SCCF RECON,ioos:station:SCCF:13:1,2017-11-09T08:00:00Z,26.5255,-82.0032,2.33,24.76,2 
SCCF RECON,ioos:station:SCCF:13:1,2017-11-09T09:00:00Z,26.5255,-82.0032,2.33,24.52,2 
SCCF RECON,ioos:station:SCCF:13:1,2017-11-09T10:00:00Z,26.5255,-82.0032,2.33,24.44,2 
SCCF RECON,ioos:station:SCCF:13:1,2017-11-09T11:00:00Z,26.5255,-82.0032,2.33,24.44,2 
SCCF RECON,ioos:station:SCCF:13:1,2017-11-09T12:00:00Z,26.5255,-82.0032,2.33,24.63,2 
SCCF RECON,ioos:station:SCCF:13:1,2017-11-09T13:00:00Z,26.5255,-82.0032,2.33,24.83,2 
SCCF RECON,ioos:station:SCCF:13:1,2017-11-09T14:00:00Z,26.5255,-82.0032,2.33,25.11,2 
SCCF RECON,ioos:station:SCCF:13:1,2017-11-09T15:00:00Z,26.5255,-82.0032,2.33,25.27,2 
SCCF RECON,ioos:station:SCCF:13:1,2017-11-09T16:00:00Z,26.5255,-82.0032,2.33,25.64,2 
SCCF RECON,ioos:station:SCCF:13:1,2017-11-09T17:00:00Z,26.5255,-82.0032,2.33,25.89,2 
SCCF RECON,ioos:station:SCCF:13:1,2017-11-09T18:00:00Z,26.5255,-82.0032,2.33,25.99,2 
SCCF RECON,ioos:station:SCCF:13:1,2017-11-09T19:00:00Z,26.5255,-82.0032,2.33,26.18,2 
SCCF RECON,ioos:station:SCCF:13:1,2017-11-09T20:00:00Z,26.5255,-82.0032,2.33,26.31,2 
SCCF RECON,ioos:station:SCCF:13:1,2017-11-09T21:00:00Z,26.5255,-82.0032,2.33,26.49,2 
SCCF RECON,ioos:station:SCCF:13:1,2017-11-09T22:00:00Z,26.5255,-82.0032,2.33,25.85,2 
SCCF RECON,ioos:station:SCCF:13:1,2017-11-10T05:00:00Z,26.5255,-82.0032,2.33,25.65,2 
SCCF RECON,ioos:station:SCCF:13:1,2017-11-10T06:00:00Z,26.5255,-82.0032,2.33,25.69,2 
SCCF RECON,ioos:station:SCCF:13:1,2017-11-10T07:00:00Z,26.5255,-82.0032,2.33,25.31,2 
SCCF RECON,ioos:station:SCCF:13:1,2017-11-10T08:00:00Z,26.5255,-82.0032,2.33,25.36,2 
SCCF RECON,ioos:station:SCCF:13:1,2017-11-10T09:00:00Z,26.5255,-82.0032,2.33,25.33,2 
SCCF RECON,ioos:station:SCCF:13:1,2017-11-10T10:00:00Z,26.5255,-82.0032,2.33,25.1,2 
SCCF RECON,ioos:station:SCCF:13:1,2017-11-10T11:00:00Z,26.5255,-82.0032,2.33,24.83,2 
SCCF RECON,ioos:station:SCCF:13:1,2017-11-10T12:00:00Z,26.5255,-82.0032,2.33,24.84,2 
SCCF RECON,ioos:station:SCCF:13:1,2017-11-10T13:00:00Z,26.5255,-82.0032,2.33,24.99,2 
SCCF RECON,ioos:station:SCCF:13:1,2017-11-10T14:00:00Z,26.5255,-82.0032,2.33,25.18,2 
SCCF RECON,ioos:station:SCCF:13:1,2017-11-10T15:00:00Z,26.5255,-82.0032,2.33,25.43,2 
SCCF RECON,ioos:station:SCCF:13:1,2017-11-10T16:00:00Z,26.5255,-82.0032,2.33,25.57,2 
SCCF RECON,ioos:station:SCCF:13:1,2017-11-10T17:00:00Z,26.5255,-82.0032,2.33,25.79,2 
SCCF RECON,ioos:station:SCCF:13:1,2017-11-10T18:00:00Z,26.5255,-82.0032,2.33,26.19,2 
SCCF RECON,ioos:station:SCCF:13:1,2017-11-10T19:00:00Z,26.5255,-82.0032,2.33,26.35,2 
SCCF RECON,ioos:station:SCCF:13:1,2017-11-10T20:00:00Z,26.5255,-82.0032,2.33,26.48,2 
SCCF RECON,ioos:station:SCCF:13:1,2017-11-10T21:00:00Z,26.5255,-82.0032,2.33,26.51,2 
SCCF RECON,ioos:station:SCCF:13:1,2017-11-10T22:00:00Z,26.5255,-82.0032,2.33,26.06,2 
SCCF RECON,ioos:station:SCCF:13:1,2017-11-11T05:00:00Z,26.5255,-82.0032,2.33,25.58,2 
SCCF RECON,ioos:station:SCCF:13:1,2017-11-11T06:00:00Z,26.5255,-82.0032,2.33,25.4,2 
SCCF RECON,ioos:station:SCCF:13:1,2017-11-11T07:00:00Z,26.5255,-82.0032,2.33,25.27,2 
SCCF RECON,ioos:station:SCCF:13:1,2017-11-11T08:00:00Z,26.5255,-82.0032,2.33,25.21,2 
SCCF RECON,ioos:station:SCCF:13:1,2017-11-11T09:00:00Z,26.5255,-82.0032,2.33,25.31,2 
SCCF RECON,ioos:station:SCCF:13:1,2017-11-11T10:00:00Z,26.5255,-82.0032,2.33,25.24,2 
SCCF RECON,ioos:station:SCCF:13:1,2017-11-11T11:00:00Z,26.5255,-82.0032,2.33,24.93,2 
SCCF RECON,ioos:station:SCCF:13:1,2017-11-11T12:00:00Z,26.5255,-82.0032,2.33,24.65,2 
SCCF RECON,ioos:station:SCCF:13:1,2017-11-11T13:00:00Z,26.5255,-82.0032,2.33,24.3,2 
SCCF RECON,ioos:station:SCCF:13:1,2017-11-11T14:00:00Z,26.5255,-82.0032,2.33,24.44,2 
SCCF RECON,ioos:station:SCCF:13:1,2017-11-11T15:00:00Z,26.5255,-82.0032,2.33,24.46,2 
SCCF RECON,ioos:station:SCCF:13:1,2017-11-11T16:00:00Z,26.5255,-82.0032,2.33,24.71,2 
SCCF RECON,ioos:station:SCCF:13:1,2017-11-11T17:00:00Z,26.5255,-82.0032,2.33,24.94,2 
SCCF RECON,ioos:station:SCCF:13:1,2017-11-11T18:00:00Z,26.5255,-82.0032,2.33,25.19,2 
SCCF RECON,ioos:station:SCCF:13:1,2017-11-11T19:00:00Z,26.5255,-82.0032,2.33,25.4,2 
SCCF RECON,ioos:station:SCCF:13:1,2017-11-11T20:00:00Z,26.5255,-82.0032,2.33,25.46,2 
SCCF RECON,ioos:station:SCCF:13:1,2017-11-11T21:00:00Z,26.5255,-82.0032,2.33,25.48,2 
SCCF RECON,ioos:station:SCCF:13:1,2017-11-11T22:00:00Z,26.5255,-82.0032,2.33,25.33,2 
SCCF RECON,ioos:station:SCCF:13:1,2017-11-12T05:00:00Z,26.5255,-82.0032,2.33,24.43,2 
SCCF RECON,ioos:station:SCCF:13:1,2017-11-12T06:00:00Z,26.5255,-82.0032,2.33,24.48,2 
SCCF RECON,ioos:station:SCCF:13:1,2017-11-12T07:00:00Z,26.5255,-82.0032,2.33,24.48,2 
SCCF RECON,ioos:station:SCCF:13:1,2017-11-12T08:00:00Z,26.5255,-82.0032,2.33,24.43,2 
SCCF RECON,ioos:station:SCCF:13:1,2017-11-12T09:00:00Z,26.5255,-82.0032,2.33,24.47,2 
SCCF RECON,ioos:station:SCCF:13:1,2017-11-12T10:00:00Z,26.5255,-82.0032,2.33,24.48,2 
SCCF RECON,ioos:station:SCCF:13:1,2017-11-12T11:00:00Z,26.5255,-82.0032,2.33,24.5,2 
SCCF RECON,ioos:station:SCCF:13:1,2017-11-12T12:00:00Z,26.5255,-82.0032,2.33,24.36,2 
SCCF RECON,ioos:station:SCCF:13:1,2017-11-12T13:00:00Z,26.5255,-82.0032,2.33,24.31,2 
SCCF RECON,ioos:station:SCCF:13:1,2017-11-12T14:00:00Z,26.5255,-82.0032,2.33,24.31,2 
SCCF RECON,ioos:station:SCCF:13:1,2017-11-12T15:00:00Z,26.5255,-82.0032,2.33,24.24,2 
SCCF RECON,ioos:station:SCCF:13:1,2017-11-12T16:00:00Z,26.5255,-82.0032,2.33,24.27,2 
SCCF RECON,ioos:station:SCCF:13:1,2017-11-12T17:00:00Z,26.5255,-82.0032,2.33,24.39,2 
SCCF RECON,ioos:station:SCCF:13:1,2017-11-12T18:00:00Z,26.5255,-82.0032,2.33,24.76,2 
SCCF RECON,ioos:station:SCCF:13:1,2017-11-12T19:00:00Z,26.5255,-82.0032,2.33,25.04,2 
SCCF RECON,ioos:station:SCCF:13:1,2017-11-12T20:00:00Z,26.5255,-82.0032,2.33,25.14,2 
SCCF RECON,ioos:station:SCCF:13:1,2017-11-12T21:00:00Z,26.5255,-82.0032,2.33,25.22,2 
SCCF RECON,ioos:station:SCCF:13:1,2017-11-12T22:00:00Z,26.5255,-82.0032,2.33,25.22,2 
SCCF RECON,ioos:station:SCCF:13:1,2017-11-13T05:00:00Z,26.5255,-82.0032,2.33,24.43,2 
SCCF RECON,ioos:station:SCCF:13:1,2017-11-13T06:00:00Z,26.5255,-82.0032,2.33,24.55,2 
SCCF RECON,ioos:station:SCCF:13:1,2017-11-13T07:00:00Z,26.5255,-82.0032,2.33,24.53,2 
SCCF RECON,ioos:station:SCCF:13:1,2017-11-13T08:00:00Z,26.5255,-82.0032,2.33,24.46,2 
SCCF RECON,ioos:station:SCCF:13:1,2017-11-13T09:00:00Z,26.5255,-82.0032,2.33,24.41,2 
SCCF RECON,ioos:station:SCCF:13:1,2017-11-13T10:00:00Z,26.5255,-82.0032,2.33,24.36,2 
SCCF RECON,ioos:station:SCCF:13:1,2017-11-13T11:00:00Z,26.5255,-82.0032,2.33,24.34,2 
SCCF RECON,ioos:station:SCCF:13:1,2017-11-13T12:00:00Z,26.5255,-82.0032,2.33,24.38,2 
SCCF RECON,ioos:station:SCCF:13:1,2017-11-13T13:00:00Z,26.5255,-82.0032,2.33,24.35,2 
SCCF RECON,ioos:station:SCCF:13:1,2017-11-13T14:00:00Z,26.5255,-82.0032,2.33,24.21,2 
SCCF RECON,ioos:station:SCCF:13:1,2017-11-13T15:00:00Z,26.5255,-82.0032,2.33,24.15,2 
SCCF RECON,ioos:station:SCCF:13:1,2017-11-13T16:00:00Z,26.5255,-82.0032,2.33,24.2,2 
SCCF RECON,ioos:station:SCCF:13:1,2017-11-13T17:00:00Z,26.5255,-82.0032,2.33,24.19,2 
SCCF RECON,ioos:station:SCCF:13:1,2017-11-13T18:00:00Z,26.5255,-82.0032,2.33,24.33,2 
SCCF RECON,ioos:station:SCCF:13:1,2017-11-13T19:00:00Z,26.5255,-82.0032,2.33,24.75,2 
SCCF RECON,ioos:station:SCCF:13:1,2017-11-13T20:00:00Z,26.5255,-82.0032,2.33,24.81,2 
SCCF RECON,ioos:station:SCCF:13:1,2017-11-13T21:00:00Z,26.5255,-82.0032,2.33,24.83,2 
SCCF RECON,ioos:station:SCCF:13:1,2017-11-13T23:00:00Z,26.5255,-82.0032,2.33,24.74,2 
SCCF RECON,ioos:station:SCCF:13:1,2017-11-14T05:00:00Z,26.5255,-82.0032,2.33,24.42,2 
SCCF RECON,ioos:station:SCCF:13:1,2017-11-14T06:00:00Z,26.5255,-82.0032,2.33,24.42,2 
SCCF RECON,ioos:station:SCCF:13:1,2017-11-14T07:00:00Z,26.5255,-82.0032,2.33,24.3,2 
SCCF RECON,ioos:station:SCCF:13:1,2017-11-14T08:00:00Z,26.5255,-82.0032,2.33,23.98,2 
SCCF RECON,ioos:station:SCCF:13:1,2017-11-14T09:00:00Z,26.5255,-82.0032,2.33,23.92,2 
SCCF RECON,ioos:station:SCCF:13:1,2017-11-14T10:00:00Z,26.5255,-82.0032,2.33,23.88,2 
SCCF RECON,ioos:station:SCCF:13:1,2017-11-14T11:00:00Z,26.5255,-82.0032,2.33,23.81,2 
SCCF RECON,ioos:station:SCCF:13:1,2017-11-14T12:00:00Z,26.5255,-82.0032,2.33,23.76,2 
SCCF RECON,ioos:station:SCCF:13:1,2017-11-14T13:00:00Z,26.5255,-82.0032,2.33,24.0,2 
SCCF RECON,ioos:station:SCCF:13:1,2017-11-14T14:00:00Z,26.5255,-82.0032,2.33,23.98,2 
SCCF RECON,ioos:station:SCCF:13:1,2017-11-14T15:00:00Z,26.5255,-82.0032,2.33,23.87,2 
SCCF RECON,ioos:station:SCCF:13:1,2017-11-14T16:00:00Z,26.5255,-82.0032,2.33,24.03,2 
SCCF RECON,ioos:station:SCCF:13:1,2017-11-14T17:00:00Z,26.5255,-82.0032,2.33,24.26,2 
SCCF RECON,ioos:station:SCCF:13:1,2017-11-14T18:00:00Z,26.5255,-82.0032,2.33,24.13,2 
SCCF RECON,ioos:station:SCCF:13:1,2017-11-14T19:00:00Z,26.5255,-82.0032,2.33,24.25,2 
SCCF RECON,ioos:station:SCCF:13:1,2017-11-14T20:00:00Z,26.5255,-82.0032,2.33,24.45,2 
SCCF RECON,ioos:station:SCCF:13:1,2017-11-14T21:00:00Z,26.5255,-82.0032,2.33,24.73,2 
SCCF RECON,ioos:station:SCCF:13:1,2017-11-14T22:00:00Z,26.5255,-82.0032,2.33,24.79,2 
SCCF RECON,ioos:station:SCCF:13:1,2017-11-15T05:00:00Z,26.5255,-82.0032,2.33,24.29,2 
SCCF RECON,ioos:station:SCCF:13:1,2017-11-15T06:00:00Z,26.5255,-82.0032,2.33,24.24,2 
SCCF RECON,ioos:station:SCCF:13:1,2017-11-15T07:00:00Z,26.5255,-82.0032,2.33,24.11,2 
SCCF RECON,ioos:station:SCCF:13:1,2017-11-15T08:00:00Z,26.5255,-82.0032,2.33,23.61,2 
SCCF RECON,ioos:station:SCCF:13:1,2017-11-15T09:00:00Z,26.5255,-82.0032,2.33,23.43,2 
SCCF RECON,ioos:station:SCCF:13:1,2017-11-15T10:00:00Z,26.5255,-82.0032,2.33,23.33,2 
SCCF RECON,ioos:station:SCCF:13:1,2017-11-15T11:00:00Z,26.5255,-82.0032,2.33,23.27,2 
SCCF RECON,ioos:station:SCCF:13:1,2017-11-15T12:00:00Z,26.5255,-82.0032,2.33,23.2,2 
SCCF RECON,ioos:station:SCCF:13:1,2017-11-15T13:00:00Z,26.5255,-82.0032,2.33,23.11,2 
SCCF RECON,ioos:station:SCCF:13:1,2017-11-15T14:00:00Z,26.5255,-82.0032,2.33,23.16,2 
SCCF RECON,ioos:station:SCCF:13:1,2017-11-15T15:00:00Z,26.5255,-82.0032,2.33,23.29,2 
SCCF RECON,ioos:station:SCCF:13:1,2017-11-15T16:00:00Z,26.5255,-82.0032,2.33,23.31,2 
SCCF RECON,ioos:station:SCCF:13:1,2017-11-15T17:00:00Z,26.5255,-82.0032,2.33,23.73,2 
SCCF RECON,ioos:station:SCCF:13:1,2017-11-15T18:00:00Z,26.5255,-82.0032,2.33,23.92,2 
SCCF RECON,ioos:station:SCCF:13:1,2017-11-15T19:00:00Z,26.5255,-82.0032,2.33,23.73,2 
SCCF RECON,ioos:station:SCCF:13:1,2017-11-15T20:00:00Z,26.5255,-82.0032,2.33,23.8,2 
SCCF RECON,ioos:station:SCCF:13:1,2017-11-15T21:00:00Z,26.5255,-82.0032,2.33,23.92,2 
SCCF RECON,ioos:station:SCCF:13:1,2017-11-15T22:00:00Z,26.5255,-82.0032,2.33,24.01,2 
SCCF RECON,ioos:station:SCCF:13:1,2017-11-16T05:00:00Z,26.5255,-82.0032,2.33,23.5,2 
SCCF RECON,ioos:station:SCCF:13:1,2017-11-16T06:00:00Z,26.5255,-82.0032,2.33,23.68,2 
SCCF RECON,ioos:station:SCCF:13:1,2017-11-16T07:00:00Z,26.5255,-82.0032,2.33,23.63,2 
SCCF RECON,ioos:station:SCCF:13:1,2017-11-16T08:00:00Z,26.5255,-82.0032,2.33,23.11,2 
SCCF RECON,ioos:station:SCCF:13:1,2017-11-16T09:00:00Z,26.5255,-82.0032,2.33,22.84,2 
SCCF RECON,ioos:station:SCCF:13:1,2017-11-16T10:00:00Z,26.5255,-82.0032,2.33,22.79,2 
SCCF RECON,ioos:station:SCCF:13:1,2017-11-16T11:00:00Z,26.5255,-82.0032,2.33,22.93,2 